EW2281 Weather Reports


Display with metric or nautical units.
time (UTC)temp
F
wind
direction
speed
MPH
gust
MPH
rain 1hr
in
rain 24hr
in
rain mn
in
humidity
%
barometer
mb
20210730193134 79 33 5.0 20.0 0.00 0.00 0.00 50 968.9
20210730192627 79 69 4.0 20.0 0.00 0.00 0.00 50 969.0
20210730192120 80 344 3.0 9.0 0.00 0.00 0.00 50 969.0
20210730191616 80 12 3.0 11.0 0.00 0.01 0.00 52 969.0
20210730191109 80 15 4.0 11.0 0.00 0.01 0.00 52 969.0
20210730190607 79 245 5.0 13.0 0.00 0.02 0.00 49 969.1
20210730190107 79 46 4.0 13.0 0.00 0.03 0.00 52 969.2
20210730185608 79 16 2.0 10.0 0.00 0.06 0.00 52 969.2
20210730185107 79 316 3.0 7.0 0.00 0.12 0.00 54 969.1
20210730184610 78 19 3.0 9.0 0.00 0.14 0.00 58 969.1
20210730184107 79 32 3.0 9.0 0.00 0.18 0.00 54 969.0
20210730183607 79 347 3.0 8.0 0.00 0.19 0.00 54 969.1
20210730183109 78 331 3.0 8.0 0.00 0.20 0.00 56 969.2
20210730182609 78 9 4.0 15.0 0.00 0.23 0.00 58 969.3
20210730182105 78 294 4.0 15.0 0.00 0.31 0.00 53 969.2
20210730181604 78 294 3.0 14.0 0.00 0.33 0.00 55 969.1
20210730181104 78 348 4.0 11.0 0.00 0.33 0.00 55 969.1
20210730180603 78 335 4.0 11.0 0.00 0.33 0.00 57 969.0
20210730180103 79 314 3.0 11.0 0.00 0.33 0.00 56 969.1
20210730175605 78 331 2.0 9.0 0.00 0.34 0.00 58 969.1
20210730175058 78 331 3.0 12.0 0.00 0.35 0.00 57 969.1
20210730174552 78 350 3.0 12.0 0.00 0.36 0.00 56 969.0
20210730174046 79 344 2.0 9.0 0.00 0.37 0.00 56 969.0
20210730173541 78 309 2.0 8.0 0.00 0.37 0.00 58 969.0
20210730173035 78 73 2.0 10.0 0.00 0.37 0.00 60 968.9
20210730172528 78 299 2.0 10.0 0.00 0.38 0.00 57 969.0
20210730172022 79 15 3.0 9.0 0.00 0.40 0.00 60 968.9
20210730171516 78 28 4.0 9.0 0.00 0.40 0.00 59 968.8
20210730171010 78 36 3.0 13.0 0.00 0.41 0.00 60 968.9
20210730170504 78 348 4.0 14.0 0.00 0.41 0.00 61 968.8
20210730165959 78 350 4.0 14.0 0.00 0.41 0.00 58 968.9
20210730165452 79 294 2.0 11.0 0.00 0.41 0.00 58 969.0
20210730164946 78 14 2.0 6.0 0.00 0.41 0.00 59 968.9
20210730164440 78 329 2.0 8.0 0.00 0.41 0.00 64 969.0
20210730163934 77 39 2.0 8.0 0.00 0.41 0.00 62 969.0
20210730163429 77 9 2.0 7.0 0.00 0.41 0.00 62 968.9
20210730162922 78 333 3.0 11.0 0.00 0.41 0.00 61 968.9
20210730162416 77 59 4.0 12.0 0.00 0.41 0.00 61 968.9
20210730161910 77 15 3.0 10.0 0.00 0.41 0.00 62 968.9
20210730161404 76 320 4.0 10.0 0.00 0.41 0.00 61 969.1
20210730160858 76 22 3.0 9.0 0.00 0.41 0.00 65 969.0
20210730160353 76 336 2.0 8.0 0.00 0.41 0.00 64 969.0
20210730155846 76 9 2.0 7.0 0.00 0.41 0.00 68 968.9
20210730155340 76 344 2.0 8.0 0.00 0.41 0.00 63 968.9
20210730154834 76 248 3.0 11.0 0.00 0.41 0.00 62 968.9
20210730154327 77 25 3.0 11.0 0.00 0.41 0.00 62 968.9
20210730153823 77 14 3.0 10.0 0.00 0.41 0.00 61 968.9
20210730153316 76 355 3.0 10.0 0.00 0.41 0.00 66 968.8
20210730152810 76 288 2.0 9.0 0.00 0.41 0.00 63 968.7
20210730152305 76 350 3.0 9.0 0.00 0.41 0.00 65 968.8
20210730151757 76 128 3.0 10.0 0.00 0.41 0.00 66 968.8
20210730151251 76 333 3.0 10.0 0.00 0.41 0.00 66 968.7
20210730150746 76 300 2.0 8.0 0.00 0.41 0.00 70 968.7
20210730150241 76 336 3.0 10.0 0.00 0.41 0.00 70 968.7
20210730145734 75 338 3.0 10.0 0.00 0.41 0.00 69 968.6
20210730145228 75 90 3.0 10.0 0.00 0.41 0.00 69 968.6
20210730144723 74 313 3.0 7.0 0.00 0.41 0.00 70 968.7
20210730144223 74 13 2.0 6.0 0.00 0.41 0.00 73 968.6
20210730143724 74 34 2.0 6.0 0.00 0.41 0.00 75 968.6
20210730143223 74 346 1.0 4.0 0.00 0.41 0.00 77 968.6
20210730142724 74 10 2.0 9.0 0.00 0.41 0.00 75 968.5
20210730142222 74 284 2.0 9.0 0.00 0.41 0.00 78 968.5
20210730141737 74 348 3.0 9.0 0.00 0.41 0.00 76 968.4
20210730141224 73 27 3.0 11.0 0.00 0.41 0.00 77 968.3
20210730140719 73 17 2.0 11.0 0.00 0.41 0.00 78 968.4
20210730140218 72 301 1.0 8.0 0.00 0.41 0.00 79 968.3
20210730135722 72 165 2.0 6.0 0.00 0.41 0.00 80 968.2
20210730135219 72 9 2.0 6.0 0.00 0.41 0.00 81 968.2
20210730134718 72 314 2.0 8.0 0.00 0.41 0.00 81 968.2
20210730134218 72 314 2.0 8.0 0.00 0.41 0.00 81 968.2
20210730133716 72 336 2.0 6.0 0.00 0.41 0.00 82 968.2
20210730133214 72 276 2.0 6.0 0.00 0.41 0.00 83 968.2
20210730132716 71 22 2.0 9.0 0.00 0.41 0.00 84 968.1
20210730132214 71 315 2.0 10.0 0.00 0.41 0.00 83 968.0
20210730131714 71 286 2.0 10.0 0.00 0.41 0.00 83 968.0
20210730131208 71 313 2.0 6.0 0.00 0.41 0.00 83 968.0
20210730130706 71 348 3.0 6.0 0.00 0.41 0.00 85 968.0
20210730130207 70 332 2.0 7.0 0.00 0.41 0.00 84 968.0
20210730125707 70 290 1.0 7.0 0.00 0.41 0.00 84 967.9
20210730125205 70 305 1.0 6.0 0.00 0.41 0.00 85 967.9
20210730124704 70 279 1.0 6.0 0.00 0.41 0.00 86 967.8
20210730124207 70 351 1.0 4.0 0.00 0.41 0.00 86 967.8
20210730123704 69 65 1.0 5.0 0.00 0.41 0.00 87 967.8
20210730123205 69 327 2.0 7.0 0.00 0.41 0.00 87 967.7
20210730122705 69 346 2.0 8.0 0.00 0.41 0.00 88 967.8
20210730122205 69 59 1.0 11.0 0.00 0.41 0.00 88 967.8
20210730121706 69 319 1.0 11.0 0.00 0.41 0.00 89 967.8
20210730121205 69 284 0.0 3.0 0.00 0.41 0.00 89 967.7
20210730120706 69 35 0.0 3.0 0.00 0.41 0.00 89 967.6
20210730120204 69 313 0.0 2.0 0.00 0.41 0.00 89 967.5
20210730115702 69 202 0.0 2.0 0.00 0.41 0.00 89 967.4
20210730115204 68 350 0.0 4.0 0.00 0.41 0.00 90 967.4
20210730114702 68 122 0.0 4.0 0.00 0.41 0.00 90 967.3
20210730114205 68 331 0.0 0.0 0.00 0.41 0.00 91 967.3
20210730113702 68 329 0.0 1.0 0.00 0.41 0.00 91 967.4
20210730113204 68 329 0.0 1.0 0.00 0.41 0.00 91 967.4
20210730112702 68 291 0.0 1.0 0.00 0.41 0.00 92 967.3
20210730112205 68 272 0.0 1.0 0.00 0.41 0.00 92 967.2
20210730111701 68 238 0.0 2.0 0.00 0.41 0.00 93 967.2
20210730111158 68 158 0.0 2.0 0.00 0.41 0.00 93 967.2
20210730110658 68 251 0.0 0.0 0.00 0.41 0.00 93 967.2
20210730110158 68 277 0.0 1.0 0.00 0.41 0.00 93 967.1
20210730105659 68 277 0.0 1.0 0.00 0.41 0.00 93 967.1
20210730105158 68 277 0.0 1.0 0.00 0.41 0.00 93 967.1
20210730104700 68 277 0.0 1.0 0.00 0.41 0.00 93 966.9
20210730104158 68 263 0.0 2.0 0.00 0.41 0.00 93 966.9
20210730103700 68 288 0.0 3.0 0.00 0.41 0.00 94 966.8
20210730103200 68 290 0.0 3.0 0.00 0.41 0.00 94 966.9
20210730102700 68 288 0.0 2.0 0.00 0.41 0.00 94 966.8
20210730102159 68 284 0.0 2.0 0.00 0.41 0.00 94 966.9
20210730101701 68 9 0.0 1.0 0.00 0.41 0.00 94 966.8
20210730101200 68 286 0.0 3.0 0.00 0.41 0.00 95 966.6
20210730100659 68 286 0.0 3.0 0.00 0.41 0.00 95 966.7
20210730100159 68 294 0.0 1.0 0.00 0.41 0.00 95 966.7
20210730095659 68 288 0.0 0.0 0.00 0.41 0.00 95 966.6
20210730095159 68 288 0.0 1.0 0.00 0.41 0.00 94 966.5
20210730094653 68 285 0.0 2.0 0.00 0.41 0.00 94 966.5
20210730094148 69 287 0.0 2.0 0.00 0.41 0.00 95 966.5
20210730093642 69 153 0.0 1.0 0.00 0.41 0.00 94 966.4
20210730093136 69 153 0.0 1.0 0.00 0.41 0.00 94 966.4
20210730092630 69 269 0.0 4.0 0.00 0.41 0.00 94 966.5
20210730092126 69 248 0.0 4.0 0.00 0.41 0.00 94 966.3
20210730091620 69 160 0.0 2.0 0.00 0.41 0.00 94 966.3
20210730091115 69 279 0.0 1.0 0.00 0.41 0.00 94 966.2
20210730090608 69 284 0.0 1.0 0.00 0.41 0.00 94 966.1
20210730090101 69 280 0.0 0.0 0.00 0.41 0.00 94 966.1
20210730085555 69 281 0.0 0.0 0.00 0.41 0.00 94 966.1
20210730085049 69 148 0.0 1.0 0.00 0.41 0.00 94 966.0
20210730084541 69 148 0.0 1.0 0.00 0.41 0.00 94 966.0
20210730084036 69 166 0.0 2.0 0.00 0.41 0.00 93 966.0
20210730083530 70 296 0.0 2.0 0.00 0.41 0.00 93 965.8
20210730083026 70 271 0.0 2.0 0.00 0.41 0.00 93 965.9
20210730082519 70 277 0.0 2.0 0.00 0.41 0.00 94 965.9
20210730082012 70 126 0.0 1.0 0.00 0.41 0.00 94 965.9
20210730081507 70 286 0.0 2.0 0.00 0.41 0.00 93 965.8
20210730081000 70 290 0.0 2.0 0.00 0.41 0.00 93 965.9
20210730080453 70 281 0.0 2.0 0.00 0.41 0.00 93 965.9
20210730075947 70 290 0.0 2.0 0.00 0.41 0.00 94 965.9
20210730075441 70 290 0.0 0.0 0.00 0.41 0.00 94 965.9
20210730074935 70 288 0.0 0.0 0.00 0.41 0.00 94 965.8
20210730074429 70 290 0.0 0.0 0.00 0.41 0.00 93 965.8
20210730073921 70 290 0.0 0.0 0.00 0.41 0.00 93 965.7
20210730073417 70 290 0.0 1.0 0.00 0.41 0.00 93 965.6
20210730072909 71 290 0.0 1.0 0.00 0.41 0.00 93 965.7
20210730072403 71 275 0.0 0.0 0.00 0.41 0.00 93 965.8
20210730071857 71 275 0.0 0.0 0.00 0.41 0.00 93 965.8
20210730071353 71 265 0.0 1.0 0.00 0.41 0.00 93 965.7
20210730070846 71 299 0.0 1.0 0.00 0.41 0.00 92 965.6
20210730070343 71 314 0.0 2.0 0.00 0.41 0.00 92 965.5
20210730065843 72 284 0.0 2.0 0.00 0.41 0.00 91 965.4
20210730065342 72 281 0.0 1.0 0.00 0.41 0.00 91 965.4
20210730064841 72 284 0.0 1.0 0.00 0.41 0.00 91 965.3
20210730064338 72 284 0.0 1.0 0.00 0.41 0.00 91 965.3
20210730063838 72 284 0.0 1.0 0.00 0.41 0.00 91 965.3
20210730063338 73 278 0.0 0.0 0.00 0.41 0.00 91 965.2
20210730062836 73 278 0.0 3.0 0.00 0.41 0.00 91 965.2
20210730062334 73 273 0.0 5.0 0.00 0.41 0.00 91 965.2
20210730061833 73 287 1.0 5.0 0.00 0.41 0.00 91 965.3
20210730061332 73 284 0.0 3.0 0.00 0.41 0.00 91 965.1
20210730060835 73 231 0.0 4.0 0.00 0.41 0.00 91 965.2
20210730060330 73 296 0.0 4.0 0.00 0.41 0.00 92 965.2
20210730055830 73 250 0.0 4.0 0.00 0.41 0.00 92 965.3
20210730055328 73 279 0.0 3.0 0.00 0.41 0.00 92 965.2
20210730054830 74 275 0.0 3.0 0.00 0.41 0.00 92 965.2
20210730054326 74 296 0.0 3.0 0.00 0.41 0.00 92 965.2
20210730053827 74 292 0.0 3.0 0.00 0.41 0.00 92 965.3
20210730053328 74 290 0.0 3.0 0.00 0.41 0.00 93 965.3
20210730052821 74 292 0.0 3.0 0.00 0.41 0.00 93 965.3
20210730052315 74 255 0.0 1.0 0.00 0.41 0.00 93 965.3
20210730051809 74 255 0.0 1.0 0.00 0.41 0.00 93 965.3
20210730051303 74 279 0.0 2.0 0.00 0.41 0.00 93 965.3
20210730050757 74 277 0.0 2.0 0.00 0.41 0.00 93 965.2
20210730050251 74 286 0.0 2.0 0.00 0.41 0.00 93 965.2
20210730045744 74 288 0.0 2.0 0.00 0.41 0.00 93 965.2
20210730045239 74 309 0.0 4.0 0.00 0.41 0.00 93 965.3
20210730044733 74 282 0.0 4.0 0.00 0.41 0.00 93 965.2
20210730044227 74 294 0.0 4.0 0.00 0.41 0.00 93 965.3
20210730043721 74 284 0.0 2.0 0.00 0.41 0.00 94 965.3
20210730043215 74 281 0.0 3.0 0.00 0.41 0.00 93 965.3
20210730042709 74 207 0.0 3.0 0.00 0.41 0.00 93 965.3
20210730042202 74 229 0.0 4.0 0.00 0.41 0.00 93 965.2
20210730041657 74 297 0.0 4.0 0.00 0.41 0.00 93 965.3
20210730041150 74 71 0.0 2.0 0.00 0.41 0.00 93 965.3
20210730040644 74 289 1.0 5.0 0.00 0.41 0.00 94 965.3
20210730040138 74 269 0.0 5.0 0.00 0.41 0.00 94 965.3
20210730035634 73 296 0.0 4.0 0.00 0.41 0.41 94 965.3
20210730035127 73 261 0.0 1.0 0.00 0.41 0.41 94 965.2
20210730034622 73 290 0.0 0.0 0.00 0.41 0.41 94 965.3
20210730034115 73 281 0.0 0.0 0.00 0.41 0.41 94 965.3
20210730033610 73 287 0.0 0.0 0.00 0.41 0.41 94 965.3
20210730033104 73 125 0.0 1.0 0.00 0.41 0.41 94 965.4
20210730032558 73 123 0.0 1.0 0.00 0.41 0.41 94 965.3
20210730032051 73 125 0.0 0.0 0.00 0.41 0.41 93 965.4
20210730031548 74 284 0.0 0.0 0.00 0.41 0.41 93 965.4
20210730031039 74 277 0.0 3.0 0.00 0.41 0.41 93 965.5
20210730030533 74 281 0.0 3.0 0.00 0.41 0.41 93 965.5
20210730030027 74 240 0.0 3.0 0.00 0.41 0.41 93 965.5
20210730025521 74 210 0.0 3.0 0.00 0.41 0.41 93 965.5
20210730025015 74 295 0.0 2.0 0.00 0.41 0.41 94 965.5
20210730024509 73 269 0.0 2.0 0.00 0.41 0.41 94 965.5
20210730024002 73 268 0.0 2.0 0.00 0.41 0.41 93 965.5
20210730023457 73 304 0.0 1.0 0.00 0.41 0.41 93 965.4
20210730022951 73 267 0.0 0.0 0.00 0.41 0.41 93 965.4
20210730022445 73 295 0.0 0.0 0.00 0.42 0.41 92 965.4
20210730021939 74 295 0.0 0.0 0.00 0.45 0.41 92 965.4
20210730021433 74 295 0.0 0.0 0.00 0.47 0.41 92 965.4
20210730020926 74 288 0.0 0.0 0.00 0.53 0.41 92 965.4
20210730020421 74 288 0.0 0.0 0.00 0.55 0.41 92 965.4
20210730015915 74 288 0.0 0.0 0.00 0.55 0.41 92 965.4
20210730015409 74 288 0.0 0.0 0.00 0.55 0.41 92 965.4
20210730014903 74 290 0.0 1.0 0.00 0.55 0.41 92 965.3
20210730014356 74 290 0.0 1.0 0.00 0.55 0.41 92 965.3
20210730013851 74 264 0.0 1.0 0.00 0.55 0.41 92 965.2
20210730013345 74 294 0.0 1.0 0.00 0.55 0.41 93 965.2
20210730012838 74 218 0.0 0.0 0.00 0.55 0.41 92 965.3
20210730012332 74 218 0.0 0.0 0.00 0.55 0.41 92 965.3
20210730011827 74 218 0.0 1.0 0.00 0.55 0.41 92 965.2
20210730011321 74 209 0.0 1.0 0.00 0.55 0.41 92 965.2
20210730010815 74 236 0.0 0.0 0.00 0.55 0.41 91 965.2
20210730010310 74 236 0.0 0.0 0.00 0.55 0.41 91 965.1
20210730005803 74 207 0.0 0.0 0.00 0.55 0.41 91 965.2
20210730005257 74 299 0.0 0.0 0.00 0.55 0.41 90 965.2
20210730004751 75 299 0.0 0.0 0.00 0.55 0.41 89 965.1
20210730004246 75 299 0.0 0.0 0.00 0.55 0.41 89 965.1
20210730003739 76 299 0.0 0.0 0.00 0.55 0.41 88 965.1
20210730003234 76 299 0.0 0.0 0.00 0.55 0.41 88 965.0
20210730002727 76 299 0.0 1.0 0.00 0.55 0.41 87 965.0
20210730002221 77 292 0.0 1.0 0.00 0.55 0.41 87 965.0
20210730001715 77 318 0.0 3.0 0.00 0.55 0.41 86 965.1
20210730001209 77 279 0.0 5.0 0.00 0.55 0.41 86 965.1
20210730000703 77 239 1.0 5.0 0.00 0.55 0.41 85 965.1
20210730000157 78 209 1.0 4.0 0.00 0.55 0.41 85 965.1
20210729235651 78 184 0.0 4.0 0.00 0.55 0.41 85 965.0
20210729235145 78 294 0.0 0.0 0.00 0.55 0.41 84 964.9
20210729234641 79 294 0.0 0.0 0.00 0.55 0.41 83 964.9
20210729234133 79 294 0.0 0.0 0.00 0.55 0.41 82 964.9
20210729233627 80 294 0.0 0.0 0.00 0.55 0.41 82 964.9
20210729233120 80 298 0.0 3.0 0.00 0.55 0.41 82 964.9
20210729232615 80 283 1.0 5.0 0.00 0.55 0.41 81 964.9
20210729232110 80 283 1.0 9.0 0.00 0.55 0.41 80 964.9
20210729231605 81 275 1.0 9.0 0.00 0.55 0.41 79 964.8
20210729231105 82 146 0.0 0.0 0.00 0.55 0.41 80 964.8
20210729230605 81 139 0.0 0.0 0.00 0.55 0.41 81 964.8
20210729230105 80 286 0.0 0.0 0.00 0.55 0.41 83 964.7
20210729225605 80 192 0.0 1.0 0.00 0.55 0.41 82 964.7
20210729225103 80 282 0.0 2.0 0.00 0.55 0.41 81 964.7
20210729224602 81 71 0.0 3.0 0.00 0.55 0.41 81 964.6
20210729224100 80 263 0.0 3.0 0.00 0.55 0.41 82 964.6
20210729223602 80 296 1.0 4.0 0.00 0.55 0.41 81 964.6
20210729223059 80 296 1.0 4.0 0.00 0.55 0.41 81 964.6
20210729222557 81 278 0.0 2.0 0.00 0.55 0.41 82 964.6
20210729222101 80 208 0.0 1.0 0.00 0.55 0.41 83 964.7
20210729221557 80 240 1.0 3.0 0.00 0.55 0.41 84 964.7
20210729221056 80 283 1.0 7.0 0.00 0.55 0.41 81 964.7
20210729220552 81 283 1.0 7.0 0.00 0.55 0.41 79 964.7
20210729220052 81 155 1.0 6.0 0.00 0.55 0.41 81 964.7
20210729215552 82 269 0.0 6.0 0.00 0.55 0.41 79 964.8
20210729215052 81 264 0.0 3.0 0.00 0.55 0.41 86 964.7
20210729214552 80 234 0.0 3.0 0.00 0.55 0.41 87 964.7
20210729214052 80 252 0.0 2.0 0.00 0.55 0.41 87 964.6
20210729213551 79 250 0.0 1.0 0.00 0.55 0.41 89 964.7
20210729213052 79 172 0.0 1.0 0.00 0.55 0.41 88 964.8
20210729212553 79 351 0.0 2.0 0.00 0.55 0.41 88 964.8
20210729212049 79 242 0.0 3.0 0.00 0.55 0.41 88 964.8
20210729211549 78 165 0.0 3.0 0.00 0.55 0.41 89 964.9
20210729211048 78 314 0.0 3.0 0.00 0.55 0.41 89 964.9
20210729210549 78 150 0.0 3.0 0.00 0.55 0.41 90 965.0
20210729210048 78 162 0.0 3.0 0.00 0.55 0.41 89 965.0
20210729205548 78 174 0.0 4.0 0.00 0.55 0.41 91 964.9
20210729205050 78 161 0.0 4.0 0.00 0.55 0.41 91 965.0
20210729204548 78 178 0.0 3.0 0.00 0.55 0.41 93 965.2
20210729204049 78 132 0.0 2.0 0.00 0.55 0.41 95 965.1
20210729203547 77 145 0.0 2.0 0.00 0.55 0.41 98 965.1
20210729203050 76 22 0.0 3.0 0.00 0.55 0.41 99 965.3
20210729202547 74 21 0.0 3.0 0.00 0.55 0.41 99 965.3
20210729202049 74 329 1.0 4.0 0.00 0.55 0.41 98 965.4
20210729201549 73 11 1.0 5.0 0.01 0.55 0.41 98 965.4
20210729201051 73 281 1.0 5.0 0.01 0.55 0.41 98 965.6
20210729200548 73 290 0.0 3.0 0.02 0.55 0.41 98 965.4
20210729200049 73 123 0.0 0.0 0.03 0.55 0.41 98 965.5
20210729195546 72 123 0.0 0.0 0.08 0.55 0.41 98 965.6
20210729195040 72 123 0.0 0.0 0.13 0.55 0.41 98 965.5
20210729194535 72 123 0.0 0.0 0.14 0.55 0.41 98 965.6
20210729194027 72 123 0.0 0.0 0.18 0.55 0.41 98 965.7
20210729193522 71 123 0.0 1.0 0.19 0.55 0.41 98 965.9